Regional Weather Roundup
Issued by NWS

Home | Current Version | Previous Version | Text Only | Print | Product List | Glossary On
Versions: 1 2 3 4 5 6 7 8 9 10 11 12 13 14 15 16 17 18 19 20 21 22 23 24 25 26 27 28 29 30 31 32 33 34 35 36 37 38 39 40 41 42 43 44 45 46 47 48
000
ASUS45 KBOU 271307
RWRCO

WEATHER ROUNDUP FOR COLORADO
NATIONAL WEATHER SERVICE DENVER/BOULDER CO
600 AM MST SAT DEC 27 2014

NOTE: "FAIR" INDICATES FEW OR NO CLOUDS BELOW 12000 FEET WITH NO
SIGNIFICANT WEATHER AND/OR OBSTRUCTIONS TO VISIBILITY.

COZ001>005-013-030-031-271400-
...NORTHWEST COLORADO...

CITY           SKY/WX    TMP DP  RH WIND       PRES   REMARKS
CRAIG            N/A      4   0  83 MISG      30.21R
HAYDEN         CLOUDY     9   5  85 CALM      30.17R
MEEKER         CLOUDY     6   2  83 CALM      30.19R
MOUNT WERNER   NOT AVBL
STEAMBOAT SPGS CLOUDY     9   6  89 CALM      30.15R
WALDEN         CLOUDY    -9 -17  70 SE6       30.05R WCI -23
$$

COZ006>008-011-271400-
...WEST CENTRAL VALLEYS...

CITY           SKY/WX    TMP DP  RH WIND       PRES   REMARKS
GRAND JUNCTION PTCLDY     6   3  87 CALM      30.26R
MONTROSE       MOCLDY    15  10  80 SE3       30.24R
EAGLE          CLOUDY     7   5  92 CALM      30.20R
RIFLE          PTCLDY     8   3  80 CALM      30.24R
DELTA          CLOUDY    20  11  68 SW6       30.25R WCI  13
NUCLA          PTCLDY    10   5  79 E10       30.24R WCI  -3
$$

COZ017>023-064>068-271400-
...SOUTHWEST COLORADO...

CITY           SKY/WX    TMP DP  RH WIND       PRES   REMARKS
DURANGO        PTCLDY     3  -2  79 N6        30.11R WCI  -8
CORTEZ         CLEAR      4   0  83 NE7       30.18R WCI  -8
PAGOSA SPRINGS PTCLDY     6   4  91 CALM      30.07R
TELLURIDE      PTCLDY     1  -3  85 CALM      30.05R
WOLF CREEK PAS   N/A     -2  -4  92 MISG      29.91R
$$

COZ009-010-012-014-032>034-037-058>063-271400-
...CENTRAL COLORADO...

CITY           SKY/WX    TMP DP  RH WIND       PRES   REMARKS
ASPEN          CLOUDY     5  -2  72 S7        30.10R WCI  -7
BUENA VISTA    NOT AVBL
COPPER MTN     CLOUDY     0  -8  71 W13       29.88R WCI -18
BERTHOUD PASS  CLOUDY    -9 -15  77 MISG      29.83R
COTTONWOOD PAS PTCLDY     9   3  78 W12G17    29.96R WCI  -6
GUNNISON       CLOUDY     1   1 100 CALM      30.13R
KREMMLING      CLOUDY     9   3  78 CALM      30.13R
LEADVILLE      MOCLDY    -9 -15  75 NE9       29.97R WCI -26
MONARCH PASS   CLOUDY    -4  -8  84 MISG      29.97R
SALIDA         PTCLDY     2  -2  83 NW3       30.16R
SUNLIGHT       CLOUDY   N/A N/A N/A CALM      29.98R FOG
WILKERSON PASS MOCLDY     0  -4  85 NW7       29.90R WCI -13
$$

COZ069>075-271400-
...SAN LUIS VALLEY/SANGRE DE CRISTO MOUNTAINS...

CITY           SKY/WX    TMP DP  RH WIND       PRES   REMARKS
ALAMOSA        MOCLDY    -4  -9  79 N5        30.07R WCI -15
LA VETA PASS   NOT AVBL
SAGUACHE       PTCLDY     5   0  78 NW17      30.07R WCI -14
$$

COZ035-036-038>040-271400-
...NORTHERN COLORADO FRONT RANGE...

CITY           SKY/WX    TMP DP  RH WIND       PRES   REMARKS
DENVER INTL AP PTCLDY     9   3  77 SW12      30.11R WCI  -6
DMNS CITY PARK   N/A      9   3  77 S9        30.13R WCI  -5
AURORA         CLEAR      7   5  90 S8        30.12R WCI  -6
FRONT RANGE AP PTCLDY    12   7  79 MISG      30.11R
ERIE MUNI ARPT   N/A     -3  -6  87 CALM      30.13R
BOULDER MUN AP PTCLDY    12   7  79 CALM      30.12R
CENTENNIAL     PTCLDY     6   1  80 SW9       30.10R WCI  -8
BROOMFIELD     NOT AVBL
FORT COLLINS   MOCLDY     1   0  92 S6        30.13R VSB<1/4 WCI -10
LONGMONT       PTCLDY     0  -4  80 CALM      30.16R
$$

COZ041-046-047-076>085-087-088-271400-
...PIKES PEAK/PALMER DIVIDE AND SOUTHERN FOOTHILLS...

CITY           SKY/WX    TMP DP  RH WIND       PRES   REMARKS
COLO. SPRINGS  PTCLDY     9   3  77 NW5       30.10R WCI   1
A. F. ACADEMY  MOCLDY     6  -2  71 N13       30.07R WCI -10
ELLICOTT       NOT AVBL
FALCON         PTCLDY    12   2  65 N9        30.06R WCI  -1
FORT CARSON    PTCLDY     3  -1  83 NW7       30.10R WCI  -9
LIMON          PTCLDY    -1  -5  82 NW5       30.12R WCI -11
MONUMENT HILL  PTCLDY     0  -4  85 W7        30.04R WCI -13
TRINIDAD       CLOUDY    13   9  84 NW5       30.14R WCI   5
$$

COZ042>045-048>051-090-091-271400-
...NORTHEAST COLORADO...

CITY           SKY/WX    TMP DP  RH WIND       PRES   REMARKS
GREELEY ARPT   PTCLDY    -8 -17  65 CALM      30.14R
AKRON          PTCLDY     5   3  91 W20       30.12R WCI -15
BURLINGTON     PTCLDY     5   1  83 W8        30.18R WCI  -8
WRAY           PTCLDY     2  -1  88 SW7       30.18R WCI -10
STERLING       PTCLDY     3   0  85 SW9       30.16R WCI -11
HOLYOKE        PTCLDY     7   1  78 W7        30.16R WCI  -5
FORT MORGAN    PTCLDY    -3  -7  84 W12       30.16R WCI -21
$$

COZ086-089-092>099-271400-
...SOUTHEAST COLORADO...

CITY           SKY/WX    TMP DP  RH WIND       PRES   REMARKS
PUEBLO         CLEAR      5   2  87 CALM      30.19R
LA JUNTA       CLEAR      5   1  83 W9        30.22R WCI  -9
LAMAR          CLEAR      4   0  83 W7        30.23R WCI  -8
SPRINGFIELD      N/A      7   4  87 NW10      30.18R WCI  -8
$$


USA.gov is the U.S. government's official web portal to all federal, state and local government web resources and services.